Temperature
10 10 10 10 10 10 10 10 10 10 10 10 10 10 10 10 10 11 10 10 10 10 10 10 10 10 10 10 10 10 10 10 10 10 10 10 10 10 10 10 10 10 10
9 9 9 9 10 10 10 10 10 10 10 10 10 10 10 10 10 10 10 10 10 10 10 10 10 10 10 10 10 10 10 10 10 10 10 10 10 9 9 9 9 9 9
9 9 9 9 9 9 9 9 9 9 9 9 9 9 9 9 9 10 10 10 10 10 10 9 9 9 9 9 9 9 9 9 9 9 9 9 9 9 9 9 9 9 9
8 8 8 8 8 8 9 9 9 9 9 9 9 9 9 9 9 9 9 9 9 9 9 9 9 9 9 9 9 9 9 9 9 9 9 9 9 9 9 9 9 9 9
7 7 8 8 8 8 8 8 8 8 8 8 8 8 8 8 8 8 8 8 9 9 9 9 9 9 8 8 8 8 8 8 8 8 8 8 8 8 8 8 8 8 8
7 7 7 7 7 7 7 7 8 7 7 8 7 7 8 7 8 8 8 8 8 8 8 8 8 8 8 8 8 8 8 8 7 7 8 8 8 8 8 8 8 8 8
6 6 6 7 7 7 7 7 7 7 7 7 7 7 7 7 7 7 7 7 7 7 7 7 7 7 7 7 7 7 7 7 7 7 7 7 7 7 7 7 7 7 7
5 6 6 6 6 6 6 6 6 6 6 6 6 6 6 6 6 6 6 6 6 6 6 6 6 6 7 7 7 7 7 7 7 6 6 6 7 7 7 7 7 7 7
5 5 5 5 5 5 5 5 5 6 6 5 5 5 5 5 5 5 5 5 5 6 6 6 6 6 6 6 6 6 6 6 6 6 6 6 6 6 6 6 6 6 7
4 4 4 4 4 5 5 5 5 5 5 5 5 4 4 4 4 4 4 4 4 5 5 5 5 5 5 5 5 5 5 5 5 5 5 5 5 5 5 5 6 6 6
3 3 4 4 4 4 4 4 4 4 4 4 4 4 4 4 4 3 3 4 4 4 4 4 4 4 5 5 5 5 5 5 5 4 4 5 5 5 5 5 5 5 5
3 3 3 3 3 3 3 3 3 3 4 4 4 3 3 3 3 3 3 3 3 3 3 3 3 4 4 4 4 4 4 4 4 4 4 4 4 4 4 4 4 4 5
2 2 2 2 2 2 2 3 3 3 3 3 3 3 3 3 3 3 2 2 2 2 3 3 3 3 3 3 3 3 3 3 3 3 3 3 3 3 3 4 4 4 4
1 1 1 2 2 2 2 2 2 2 2 2 2 2 2 2 2 2 2 1 1 1 2 2 2 2 2 2 2 2 2 2 2 2 2 2 2 3 3 3 3 3 3
1 1 1 1 1 1 1 1 1 1 1 2 2 2 1 1 1 1 1 1 0 0 1 1 1 2 2 2 2 2 2 2 2 2 2 2 2 2 2 2 2 3 3
0 0 0 0 0 0 0 1 1 1 1 1 1 1 1 1 0 0 0 0 -0 -0 -0 0 1 1 1 1 1 1 1 1 1 1 1 1 1 2 2 2 2 2 2
-1 -1 -1 -1 -1 -0 -0 -0 0 -0 0 0 0 0 0 0 -0 -0 -0 -1 -1 -1 -1 -0 -0 -0 -0 -0 0 0 0 0 1 1 1 1 1 1 1 1 1 1 2
-1 -1 -1 -1 -1 -1 -1 -1 -1 -1 -1 -1 -0 -1 -1 -1 -1 -1 -1 -1 -1 -1 -2 -1 -1 -1 -1 -1 -1 -1 -1 -1 -0 0 0 0 0 0 0 0 1 1 1
-2 -2 -2 -2 -2 -2 -2 -2 -2 -1 -1 -1 -1 -1 -1 -1 -1 -1 -1 -1 -2 -2 -2 -2 -2 -1 -1 -1 -1 -2 -2 -1 -1 -1 -1 -1 -1 -0 -0 -0 -0 0 0
-2 -2 -2 -2 -2 -2 -2 -2 -2 -2 -2 -2 -2 -2 -2 -2 -2 -2 -2 -2 -2 -2 -3 -3 -3 -2 -2 -2 -2 -2 -2 -2 -2 -2 -2 -2 -1 -1 -1 -1 -1 -1 -0
-3 -3 -3 -3 -3 -3 -3 -3 -3 -3 -3 -3 -3 -3 -3 -3 -3 -3 -3 -3 -3 -3 -3 -3 -3 -3 -3 -3 -3 -3 -4 -3 -3 -3 -3 -2 -2 -2 -2 -2 -2 -1 -1
-4 -4 -4 -4 -4 -4 -4 -4 -4 -4 -4 -4 -3 -3 -3 -3 -3 -3 -3 -4 -3 -3 -3 -4 -4 -4 -3 -3 -4 -4 -4 -5 -4 -4 -4 -3 -3 -3 -3 -2 -2 -2 -2
-4 -4 -4 -4 -5 -5 -5 -5 -5 -5 -5 -4 -4 -4 -4 -4 -4 -4 -4 -4 -4 -4 -4 -4 -4 -4 -4 -4 -4 -4 -5 -5 -5 -5 -5 -4 -4 -4 -4 -3 -3 -3 -3
-5 -5 -5 -5 -5 -5 -5 -5 -5 -5 -5 -5 -5 -5 -5 -5 -5 -5 -5 -5 -5 -5 -5 -5 -5 -5 -5 -5 -5 -5 -5 -5 -6 -5 -6 -5 -5 -4 -4 -4 -4 -4 -3
-6 -6 -6 -6 -6 -6 -6 -6 -6 -6 -6 -6 -6 -6 -6 -6 -6 -6 -6 -6 -6 -6 -6 -6 -6 -6 -6 -6 -6 -6 -6 -6 -6 -6 -6 -6 -6 -5 -5 -5 -4 -4 -4
-7 -7 -7 -7 -7 -6 -6 -6 -7 -7 -7 -7 -7 -7 -7 -7 -6 -7 -7 -7 -7 -6 -6 -6 -6 -6 -6 -6 -6 -6 -6 -7 -7 -7 -7 -7 -6 -7 -7 -6 -5 -5 -5
Wind_Speed
4 4 4 5 5 5 5 5 5 6 6 6 7 7 6 6 6 6 5 6 7 6 6 6 7 7 8 8 8 8 8 8 8 8 8 8 8 8 8 8 7 7 7
3 3 4 4 4 4 4 4 4 4 4 5 5 6 5 5 6 6 5 5 6 6 6 6 6 6 7 7 7 8 7 8 8 7 7 7 7 7 7 7 7 6 6
4 3 3 3 3 4 5 5 5 5 4 4 4 5 5 5 5 5 6 5 5 5 5 5 5 5 6 6 6 6 6 6 6 6 6 6 5 5 5 5 5 5 5
4 4 3 2 3 4 4 3 3 2 2 2 2 3 4 4 5 5 6 6 5 5 4 4 3 4 5 5 5 5 5 5 5 4 5 5 4 4 3 3 3 4 4
4 4 3 3 3 3 3 3 2 1 2 2 2 2 3 3 4 5 5 6 6 6 5 5 5 4 4 4 5 4 4 4 4 3 3 3 2 2 2 2 2 3 3
3 3 3 3 3 3 2 2 2 2 1 2 2 3 3 3 4 4 5 6 6 6 7 6 6 5 6 5 5 4 3 3 2 2 2 2 1 1 2 2 2 3 3
2 3 3 2 2 2 1 2 2 2 1 1 2 2 2 3 3 4 5 5 6 6 6 6 5 5 4 4 4 3 2 2 1 1 1 1 1 1 2 3 3 4 4
2 2 2 2 1 1 2 2 2 1 1 1 2 1 0 1 2 2 3 3 4 4 5 5 5 4 4 3 4 4 3 3 2 1 1 2 2 2 3 3 4 5 5
1 1 1 2 1 1 2 2 3 3 2 1 1 2 2 2 1 1 1 2 2 2 3 4 4 4 3 2 2 3 3 3 2 2 2 3 3 3 3 3 4 5 5
1 1 1 1 1 1 1 2 2 2 3 3 1 1 1 2 2 1 1 1 1 2 2 2 2 2 3 3 2 2 2 2 3 3 3 4 4 4 4 4 4 4 4
1 1 0 1 1 1 1 1 1 2 3 3 3 2 1 1 1 2 2 1 1 1 1 1 1 1 1 2 2 2 2 2 3 4 4 5 5 5 5 5 5 5 5
1 1 0 1 1 1 1 2 2 3 3 3 3 3 3 2 2 2 2 2 2 2 2 1 1 2 1 1 2 2 3 4 4 4 5 6 7 6 6 6 7 6 6
2 2 2 1 1 2 2 2 2 2 3 4 4 4 3 2 2 2 2 1 2 2 2 1 2 2 2 2 2 3 4 5 5 6 6 7 7 7 7 7 7 8 8
3 3 2 2 2 2 2 2 2 3 2 3 4 4 3 3 3 3 3 2 2 2 2 3 2 3 2 2 3 4 4 5 6 7 8 8 7 7 7 7 7 8 9
3 3 3 3 3 2 2 2 2 3 3 3 4 4 4 3 3 3 3 3 4 4 5 4 2 2 2 3 5 4 5 6 7 8 8 9 8 8 8 8 8 8 9
3 3 3 3 3 3 3 2 2 3 4 4 3 4 4 3 3 3 3 3 3 4 5 4 3 2 3 5 6 6 6 8 8 9 9 9 9 9 9 8 8 8 9
3 3 4 4 4 4 4 3 3 3 4 4 4 5 5 4 4 4 4 4 4 4 5 4 3 3 4 4 5 6 7 7 7 9 9 10 10 10 9 9 9 10 10
3 3 3 4 4 4 4 4 5 4 5 5 5 5 5 4 5 4 4 5 5 5 5 6 4 4 4 5 5 5 5 6 7 9 10 10 10 10 11 10 10 10 10
3 3 2 3 4 4 4 5 5 5 6 6 6 6 6 6 6 5 6 6 5 5 5 5 5 4 3 3 3 4 5 5 7 9 10 10 10 10 11 10 10 10 10
2 3 3 3 3 4 4 4 5 5 6 6 6 6 6 7 7 7 6 7 6 5 5 5 5 4 3 3 3 4 4 4 5 6 9 10 10 11 12 12 11 11 11
3 3 3 3 3 3 4 4 5 5 5 5 5 5 6 8 8 7 6 6 6 6 5 5 5 4 4 4 4 4 5 4 5 5 5 6 7 7 9 11 11 12 12
2 2 3 3 3 4 6 7 5 5 5 5 5 5 6 6 7 9 9 9 8 7 7 6 6 7 7 5 4 5 5 5 5 4 4 5 5 6 8 9 12 13 13
2 2 3 3 4 5 7 8 8 5 5 5 5 5 5 5 6 5 7 9 9 11 10 8 8 8 7 6 6 7 7 7 7 4 4 6 4 6 8 11 14 14 14
3 3 3 4 4 6 7 8 8 5 4 5 6 6 6 6 6 6 6 6 7 7 9 8 8 8 7 7 7 7 7 6 5 4 5 6 5 5 7 9 14 15 14
3 3 3 3 4 5 7 8 7 4 4 5 5 6 6 7 9 9 6 6 7 6 9 11 11 10 11 10 8 4 4 4 6 5 4 4 4 4 5 6 10 12 12
3 3 4 3 4 5 7 8 7 4 4 4 4 5 8 8 10 9 6 6 7 6 5 6 7 7 6 8 9 7 6 6 5 5 4 4 3 2 4 4 5 7 8
Wind_Direction
71 62 64 67 68 73 74 69 70 69 71 72 72 71 61 55 52 49 47 55 67 83 99 109 108 106 109 109 105 102 99 97 96 97 99 102 102 103 106 104 104 102 99
77 77 68 65 64 71 76 79 75 78 70 76 69 65 62 56 52 47 42 47 56 68 81 94 102 104 107 112 112 108 104 100 97 97 102 104 107 108 109 108 105 106 108
84 83 77 62 60 81 85 79 73 76 68 64 65 58 59 54 51 48 47 48 53 58 71 78 87 98 107 112 114 108 105 102 99 95 101 106 108 114 117 119 121 117 114
85 93 81 62 66 87 89 83 77 80 80 60 54 48 44 47 45 50 54 52 55 57 61 63 75 91 99 106 110 114 111 105 104 103 102 105 112 114 127 141 145 139 130
80 99 93 80 87 78 76 90 81 98 110 87 55 45 41 44 40 50 53 52 54 54 57 59 63 69 76 87 91 97 107 109 109 112 109 105 122 137 149 156 162 163 159
71 89 89 84 92 86 77 85 100 79 109 101 75 47 32 37 44 48 49 53 52 52 57 65 67 61 57 59 62 64 78 105 117 116 121 117 119 160 187 207 217 213 204
69 78 81 90 91 115 128 117 109 101 95 81 81 46 29 39 50 40 40 49 47 46 54 55 62 69 62 46 45 41 40 52 82 156 177 183 205 229 232 231 236 236 224
77 79 88 96 92 126 130 135 122 129 103 94 111 111 58 358 16 27 34 47 40 40 43 37 43 57 59 51 35 33 28 21 360 312 242 240 231 242 254 252 243 243 238
86 75 99 110 112 146 172 180 171 156 167 166 105 139 155 209 262 336 28 37 23 30 34 31 31 28 30 42 38 20 23 20 8 347 336 292 261 256 266 277 256 248 245
54 59 89 112 131 139 177 201 184 181 168 179 181 77 110 148 158 218 289 3 359 356 8 21 10 0 5 3 7 3 3 358 345 336 326 313 284 275 269 272 275 276 270
353 24 108 134 161 178 194 204 202 193 190 183 177 170 127 80 109 165 214 259 305 289 309 304 288 291 325 351 341 314 321 320 322 321 315 311 312 306 290 281 277 274 276
285 301 300 204 203 201 204 214 205 203 207 193 181 176 174 173 179 172 197 230 255 270 284 267 225 227 243 308 307 311 298 295 299 302 303 304 301 300 308 304 286 276 275
262 258 272 263 252 228 211 205 205 210 214 210 197 194 193 191 173 176 176 211 253 276 272 249 225 215 230 276 284 292 295 296 295 293 291 293 293 292 295 298 306 293 279
248 255 258 258 251 240 223 208 206 219 215 222 214 198 197 198 187 183 178 180 223 262 254 248 241 217 219 256 272 288 286 291 296 293 287 286 288 286 287 292 295 301 292
256 253 246 247 252 240 230 219 214 222 220 227 221 207 205 201 200 198 189 187 188 219 242 236 234 227 252 269 273 276 274 279 285 289 287 282 278 276 277 281 285 289 296
253 247 242 240 243 241 232 223 227 219 221 226 215 207 210 202 201 202 203 210 208 210 236 232 239 258 252 263 271 274 271 277 279 278 279 280 275 272 272 274 276 280 285
247 243 238 236 236 235 230 222 229 228 227 234 220 212 217 206 208 207 206 212 218 214 234 256 250 249 230 245 260 264 264 261 266 270 271 276 273 269 266 266 269 275 278
248 248 244 238 237 236 234 230 230 231 229 232 223 217 220 215 218 214 211 215 218 216 221 245 248 234 232 239 243 248 260 260 259 267 268 269 270 267 264 263 265 270 273
251 256 246 239 241 237 236 240 231 228 229 234 226 219 218 213 219 220 216 217 219 223 219 232 245 246 246 247 255 265 260 254 261 263 265 264 267 268 263 264 265 267 270
239 242 245 242 242 241 238 243 246 239 233 237 231 223 218 217 219 216 218 219 219 221 221 224 234 244 249 238 230 251 267 252 264 263 261 260 264 270 267 265 265 265 266
242 242 242 248 251 245 238 238 243 246 242 244 239 230 229 233 234 228 225 217 214 218 221 230 234 240 237 229 232 236 255 263 260 246 254 255 258 264 264 264 265 265 266
250 241 242 244 251 253 260 258 251 244 244 250 249 244 242 241 243 246 249 243 232 224 226 229 239 238 239 234 231 237 246 259 265 229 237 264 253 261 262 257 262 264 266
251 250 247 244 251 261 267 264 261 253 238 247 247 241 246 248 248 241 250 254 252 249 245 239 239 240 241 234 230 234 239 246 258 248 249 267 252 258 261 262 263 263 264
246 249 252 247 255 267 273 266 267 257 240 245 243 234 236 240 243 237 236 244 248 250 252 246 237 239 239 234 230 236 239 249 267 252 231 259 261 261 267 262 260 258 261
255 252 252 248 252 268 276 272 269 256 252 251 249 246 242 238 246 247 236 239 252 258 263 262 257 253 252 249 240 237 237 243 262 258 229 242 261 275 273 267 259 257 256
257 261 269 261 256 262 274 275 268 252 258 259 254 251 252 252 251 249 233 230 241 249 249 262 267 262 252 245 242 230 223 237 260 262 226 224 254 277 280 271 253 254 262
Height
1531 1532 1533 1535 1536 1537 1537 1538 1539 1539 1540 1541 1542 1543 1544 1544 1545 1546 1546 1546 1546 1547 1548 1549 1550 1551 1553 1554 1555 1556 1557 1557 1558 1559 1559 1560 1561 1562 1563 1564 1565 1565 1566
1530 1531 1532 1533 1534 1535 1536 1536 1537 1538 1539 1540 1541 1542 1543 1543 1544 1545 1545 1545 1546 1546 1547 1548 1550 1551 1552 1553 1554 1555 1556 1557 1557 1558 1559 1559 1560 1561 1562 1563 1564 1564 1565
1528 1529 1530 1531 1532 1533 1534 1535 1536 1536 1537 1538 1539 1540 1541 1542 1543 1543 1544 1544 1545 1546 1547 1547 1549 1550 1551 1552 1553 1554 1555 1555 1556 1557 1558 1558 1559 1560 1561 1562 1563 1563 1564
1525 1526 1527 1529 1530 1530 1531 1532 1533 1534 1535 1536 1537 1538 1539 1540 1541 1542 1542 1543 1544 1545 1546 1547 1548 1549 1550 1551 1552 1552 1553 1554 1554 1555 1556 1557 1558 1559 1560 1560 1561 1562 1562
1523 1524 1525 1526 1527 1528 1529 1530 1530 1531 1532 1533 1534 1536 1537 1538 1539 1540 1541 1541 1542 1543 1544 1545 1546 1547 1548 1549 1550 1550 1551 1552 1553 1554 1555 1555 1556 1557 1558 1559 1559 1560 1560
1520 1521 1522 1523 1524 1525 1526 1526 1528 1529 1529 1531 1532 1533 1535 1536 1537 1538 1538 1539 1540 1541 1542 1543 1544 1545 1546 1547 1547 1548 1549 1549 1550 1551 1552 1553 1554 1555 1556 1557 1557 1557 1558
1517 1518 1519 1520 1521 1522 1522 1523 1525 1525 1526 1527 1529 1530 1531 1533 1534 1535 1536 1537 1538 1539 1540 1541 1541 1542 1544 1545 1545 1546 1546 1547 1548 1549 1550 1551 1551 1552 1553 1554 1554 1555 1555
1513 1515 1515 1516 1517 1518 1519 1520 1521 1522 1523 1524 1526 1527 1528 1530 1530 1531 1532 1534 1535 1536 1537 1538 1539 1540 1541 1542 1542 1543 1544 1544 1545 1546 1547 1548 1548 1549 1550 1551 1551 1552 1552
1510 1511 1512 1513 1514 1515 1515 1516 1517 1518 1519 1521 1522 1525 1525 1525 1526 1528 1529 1530 1532 1533 1534 1535 1536 1537 1537 1538 1539 1540 1540 1541 1542 1543 1544 1544 1545 1546 1547 1547 1548 1548 1549
1506 1507 1508 1509 1510 1511 1512 1513 1514 1515 1516 1517 1519 1520 1522 1522 1523 1523 1525 1527 1528 1529 1530 1531 1532 1533 1534 1535 1535 1536 1537 1538 1538 1539 1540 1541 1542 1543 1543 1544 1544 1544 1545
1502 1503 1504 1505 1506 1507 1508 1509 1510 1511 1512 1513 1514 1516 1517 1518 1519 1520 1520 1522 1524 1526 1526 1527 1528 1530 1530 1531 1531 1532 1533 1534 1534 1535 1536 1537 1538 1539 1539 1540 1540 1541 1541
1498 1499 1500 1501 1502 1503 1504 1505 1506 1507 1508 1509 1510 1511 1513 1514 1514 1516 1517 1518 1519 1521 1522 1523 1525 1526 1526 1527 1527 1528 1529 1530 1530 1531 1532 1533 1533 1534 1535 1535 1536 1536 1537
1494 1494 1495 1496 1498 1499 1500 1501 1502 1503 1504 1505 1505 1506 1508 1510 1511 1512 1513 1514 1515 1516 1517 1519 1520 1521 1522 1523 1523 1524 1525 1525 1525 1526 1527 1528 1528 1529 1530 1530 1531 1531 1531
1489 1490 1491 1492 1493 1494 1495 1496 1497 1498 1499 1500 1501 1501 1503 1505 1506 1507 1509 1510 1510 1511 1512 1514 1515 1517 1517 1518 1519 1520 1520 1521 1521 1521 1522 1523 1523 1523 1524 1525 1525 1526 1526
1484 1486 1487 1487 1488 1489 1490 1491 1492 1493 1494 1495 1496 1497 1498 1499 1501 1502 1504 1506 1507 1506 1507 1508 1510 1511 1512 1513 1514 1515 1515 1516 1516 1516 1516 1517 1517 1518 1518 1519 1520 1520 1521
1479 1481 1481 1482 1483 1484 1484 1485 1486 1488 1489 1489 1491 1492 1493 1494 1495 1497 1498 1500 1501 1502 1502 1503 1504 1506 1507 1508 1509 1509 1509 1510 1510 1510 1511 1511 1512 1512 1512 1513 1513 1514 1515
1474 1475 1476 1477 1477 1478 1479 1480 1481 1482 1483 1484 1485 1486 1487 1489 1490 1491 1493 1494 1495 1497 1496 1497 1499 1500 1501 1502 1502 1503 1503 1503 1504 1504 1505 1505 1505 1506 1506 1507 1507 1508 1508
1469 1470 1471 1471 1472 1472 1473 1474 1475 1476 1477 1478 1479 1480 1481 1483 1484 1486 1487 1488 1490 1491 1491 1491 1492 1494 1495 1496 1496 1497 1497 1497 1497 1498 1498 1499 1499 1499 1500 1501 1501 1501 1502
1464 1465 1465 1466 1466 1467 1468 1468 1469 1470 1471 1473 1474 1474 1475 1477 1478 1480 1481 1483 1484 1485 1486 1486 1486 1488 1488 1489 1490 1490 1491 1491 1491 1491 1492 1492 1492 1492 1493 1494 1494 1495 1495
1459 1459 1460 1460 1461 1461 1462 1463 1463 1464 1465 1466 1468 1468 1470 1471 1472 1473 1475 1476 1477 1479 1479 1480 1480 1481 1482 1483 1483 1483 1483 1484 1484 1484 1485 1485 1485 1485 1486 1486 1487 1488 1488
1453 1454 1454 1454 1455 1456 1456 1457 1458 1458 1459 1460 1461 1462 1463 1464 1466 1467 1469 1470 1471 1472 1473 1473 1474 1475 1475 1476 1476 1476 1476 1476 1476 1477 1477 1477 1478 1478 1478 1479 1479 1480 1481
1448 1448 1448 1449 1450 1451 1451 1452 1452 1453 1453 1454 1455 1456 1457 1458 1459 1461 1462 1464 1465 1465 1466 1466 1467 1467 1468 1469 1470 1470 1470 1469 1468 1470 1470 1470 1470 1470 1470 1471 1472 1473 1473
1443 1443 1443 1444 1444 1445 1446 1446 1447 1447 1447 1448 1449 1450 1451 1452 1453 1454 1455 1457 1458 1459 1460 1460 1460 1460 1461 1462 1463 1463 1463 1463 1462 1463 1463 1461 1462 1462 1463 1463 1464 1465 1466
1437 1437 1438 1438 1439 1440 1441 1441 1441 1442 1442 1442 1443 1444 1445 1445 1446 1448 1449 1449 1450 1451 1452 1453 1453 1453 1455 1455 1456 1457 1457 1456 1456 1456 1457 1455 1454 1455 1456 1456 1457 1457 1458
1433 1433 1433 1433 1433 1434 1435 1435 1436 1436 1436 1436 1437 1437 1438 1439 1441 1442 1442 1442 1443 1444 1445 1446 1447 1447 1448 1449 1449 1450 1450 1449 1448 1448 1450 1449 1448 1448 1447 1447 1449 1449 1450
1428 1428 1428 1428 1428 1428 1429 1430 1430 1430 1430 1430 1431 1431 1432 1433 1434 1435 1436 1435 1435 1436 1438 1438 1439 1440 1441 1441 1442 1443 1442 1442 1441 1441 1442 1443 1442 1442 1440 1439 1441 1442 1442